Weather History for Ozark, AL

Change the Weather History Date:

Sunday, December 9, 2012

  Actual Average Record
Temperature  
Mean Temperature 68 °F -  
Max Temperature 74 °F 60 °F 79 °F (2007)
Min Temperature 62 °F 41 °F 19 °F (2006)
Cooling Degree Days 3    
Growing Degree Days 18 (Base 50)    
Moisture  
Dew Point 62 °F    
Average Humidity 88    
Maximum Humidity 100    
Minimum Humidity 55    
Precipitation  
Precipitation 0.00 in - - ()
Sea Level Pressure  
Sea Level Pressure 30.05 in    
Wind  
Wind Speed 4 mph (SSE)    
Max Wind Speed 12 mph    
Max Gust Speed -    
Visibility 7 miles    
Events Rain    
Averages and records for this station are not official NWS values.
T = Trace of Precipitation, MM = Missing Value Source: NWS Daily Summary

Daily Weather History Graph

Daily Weather History Graph

Search for Another Location

Airport:

Trip Planner

Search our weather history database for the weather conditions in past years. The results will help you decide how hot, cold, wet, or windy it might be!

Date:

Astronomy

Dec. 09, 2012 Rise Set
Actual Time 6:30 AM CST 4:40 PM CST
Civil Twilight 6:03 AM CST 5:07 PM CST
Nautical Twilight 5:33 AM CST 5:37 PM CST
Astronomical Twilight 5:04 AM CST 6:06 PM CST
Moon 2:14 AM CST (12/9) 1:37 PM CST (12/9)
Length of Visible Light 11h 03m
Length of Day
10h 09m
Waning Crescent, 18% of the Moon is Illuminated
Dec 9
Waning Crescent
Dec 13
New
Dec 19
First Quarter
Dec 28
Full
Jan 4
Last Quarter

Hourly Weather History & Observations

Time (CST) Temp. Dew Point Humidity Pressure Visibility Wind Dir Wind Speed Gust Speed Precip Events Conditions
12:02 AM 64.4 °F 64.4 °F 100% 30.03 in 1.5 mi SSE 3.5 mph - N/A   Overcast
12:05 AM 64.4 °F 64.4 °F 100% 30.03 in 1.2 mi South 3.5 mph - N/A   Overcast
12:09 AM 64.4 °F 64.4 °F 100% 30.03 in 1.0 mi South 4.6 mph - N/A   Mist
12:17 AM 64.4 °F 64.4 °F 100% 30.03 in 0.8 mi SSE 3.5 mph - N/A   Mist
12:22 AM 64.4 °F 64.4 °F 100% 30.02 in 1.0 mi South 3.5 mph - N/A   Mist
12:55 AM 64.2 °F 63.9 °F 99% 30.03 in 1.0 mi SSE 3.5 mph - N/A   Mist
12:56 AM 64.4 °F 64.4 °F 100% 30.03 in 0.8 mi SE 4.6 mph - N/A   Mist
1:01 AM 64.4 °F 64.4 °F 100% 30.03 in 0.8 mi SSE 3.5 mph - N/A   Mist
1:17 AM 64.4 °F 64.4 °F 100% 30.03 in 0.8 mi SE 3.5 mph - N/A   Mist
1:23 AM 64.4 °F 64.4 °F 100% 30.02 in 1.0 mi SE 3.5 mph - N/A   Mist
1:29 AM 64.4 °F 64.4 °F 100% 30.02 in 1.2 mi SE 3.5 mph - N/A   Overcast
1:31 AM 64.4 °F 64.4 °F 100% 30.02 in 1.5 mi SE 3.5 mph - N/A   Overcast
1:34 AM 64.4 °F 64.4 °F 100% 30.03 in 2.0 mi SE 3.5 mph - N/A   Overcast
1:48 AM 64.4 °F 64.4 °F 100% 30.02 in 3.0 mi SSE 4.6 mph - N/A   Overcast
1:52 AM 64.4 °F 64.4 °F 100% 30.02 in 5.0 mi SSE 4.6 mph - N/A   Overcast
1:55 AM 63.9 °F 63.5 °F 99% 30.02 in 7.0 mi SE 4.6 mph - N/A   Overcast
2:10 AM 64.4 °F 64.4 °F 100% 30.02 in 8.0 mi SSE 3.5 mph - N/A   Overcast
2:40 AM 64.4 °F 62.6 °F 94% 30.02 in 7.0 mi South 3.5 mph - N/A   Overcast
2:55 AM 63.9 °F 63.5 °F 99% 30.03 in 4.0 mi Calm Calm - N/A   Overcast
3:00 AM 64.4 °F 64.4 °F 100% 30.03 in 2.5 mi SE 3.5 mph - N/A   Overcast
3:09 AM 64.4 °F 64.4 °F 100% 30.03 in 3.0 mi SE 4.6 mph - N/A   Overcast
3:55 AM 63.7 °F 63.3 °F 99% 30.03 in 4.0 mi SE 3.5 mph - N/A   Overcast
4:55 AM 63.7 °F 63.3 °F 99% 30.04 in 6.0 mi SE 4.6 mph - N/A   Overcast
5:04 AM 64.4 °F 62.6 °F 94% 30.04 in 7.0 mi SE 3.5 mph - N/A Rain Light Rain
5:18 AM 64.4 °F 62.6 °F 94% 30.05 in 7.0 mi SSE 4.6 mph - N/A   Overcast
5:55 AM 63.7 °F 63.3 °F 99% 30.06 in 4.0 mi SSE 3.5 mph - 0.00 in   Overcast
6:55 AM 63.7 °F 63.3 °F 99% 30.07 in 5.0 mi SSE 3.5 mph - N/A   Overcast
7:28 AM 64.4 °F 62.6 °F 94% 30.08 in 9.0 mi SE 4.6 mph - N/A   Overcast
7:55 AM 64.0 °F 63.5 °F 98% 30.09 in 10.0 mi Calm Calm - N/A   Overcast
8:29 AM 64.4 °F 64.4 °F 100% 30.09 in 10.0 mi SE 4.6 mph - N/A   Overcast
8:42 AM 64.4 °F 64.4 °F 100% 30.09 in 10.0 mi SE 5.8 mph - N/A   Overcast
8:53 AM 64.4 °F 62.6 °F 94% 30.10 in 10.0 mi SE 4.6 mph - N/A   Overcast
8:55 AM 65.5 °F 63.1 °F 92% 30.10 in 10.0 mi SE 5.8 mph - N/A   Overcast
9:12 AM 66.2 °F 62.6 °F 88% 30.10 in 10.0 mi SSE 4.6 mph - N/A   Overcast
9:32 AM 66.2 °F 62.6 °F 88% 30.10 in 10.0 mi SSE 4.6 mph - N/A   Mostly Cloudy
9:39 AM 66.2 °F 62.6 °F 88% 30.10 in 10.0 mi SSE 8.1 mph - N/A   Mostly Cloudy
9:40 AM 66.2 °F 62.6 °F 88% 30.10 in 10.0 mi SSE 8.1 mph - N/A   Mostly Cloudy
9:50 AM 66.2 °F 62.6 °F 88% 30.10 in 10.0 mi SSE 4.6 mph - N/A   Mostly Cloudy
9:52 AM 68.0 °F 62.6 °F 83% 30.10 in 10.0 mi SSE 6.9 mph - N/A   Mostly Cloudy
9:55 AM 67.5 °F 63.0 °F 85% 30.10 in 10.0 mi SSE 6.9 mph - N/A   Mostly Cloudy
10:28 AM 68.0 °F 62.6 °F 83% 30.09 in 10.0 mi South 4.6 mph - N/A   Scattered Clouds
10:30 AM 68.0 °F 62.6 °F 83% 30.09 in 10.0 mi South 3.5 mph - N/A   Mostly Cloudy
10:46 AM 69.8 °F 62.6 °F 78% 30.09 in 10.0 mi SE 5.8 mph - N/A   Mostly Cloudy
10:55 AM 70.2 °F 61.7 °F 74% 30.08 in 10.0 mi SSE 8.1 mph - N/A   Mostly Cloudy
10:56 AM 69.8 °F 60.8 °F 73% 30.08 in 10.0 mi South 6.9 mph - N/A   Mostly Cloudy
10:57 AM 69.8 °F 62.6 °F 78% 30.08 in 10.0 mi South 6.9 mph - N/A   Mostly Cloudy
11:11 AM 71.6 °F 62.6 °F 73% 30.07 in 10.0 mi Variable 5.8 mph - N/A   Scattered Clouds
11:21 AM 69.8 °F 62.6 °F 78% 30.07 in 10.0 mi SSW 6.9 mph - N/A   Mostly Cloudy
11:27 AM 69.8 °F 60.8 °F 73% 30.07 in 10.0 mi South 8.1 mph - N/A   Scattered Clouds
11:55 AM 72.0 °F 60.3 °F 67% 30.05 in 10.0 mi South 6.9 mph - N/A   Scattered Clouds
12:12 PM 71.6 °F 60.8 °F 69% 30.04 in 10.0 mi South 11.5 mph - N/A   Mostly Cloudy
12:22 PM 73.4 °F 59.0 °F 61% 30.04 in 10.0 mi South 8.1 mph - N/A   Mostly Cloudy
12:55 PM 73.2 °F 58.8 °F 61% 30.02 in 10.0 mi SSW 6.9 mph - N/A   Partly Cloudy
1:55 PM 74.8 °F 58.3 °F 56% 30.01 in 10.0 mi SSW 8.1 mph - N/A   Partly Cloudy
2:55 PM 74.5 °F 57.6 °F 55% 30.01 in 10.0 mi SSW 6.9 mph - N/A   Clear
3:55 PM 73.0 °F 57.6 °F 58% 30.00 in 10.0 mi South 3.5 mph - N/A   Clear
4:55 PM 68.7 °F 59.0 °F 71% 30.01 in 10.0 mi South 3.5 mph - N/A   Clear
5:55 PM 66.4 °F 59.4 °F 78% 30.00 in 10.0 mi SE 3.5 mph - N/A   Clear
6:55 PM 64.6 °F 59.4 °F 83% 30.01 in 10.0 mi South 4.6 mph - N/A   Clear
7:55 PM 64.4 °F 59.9 °F 85% 30.01 in 10.0 mi South 4.6 mph - N/A   Overcast
8:55 PM 63.5 °F 59.9 °F 88% 30.01 in 10.0 mi South 4.6 mph - N/A   Clear
9:55 PM 63.0 °F 60.3 °F 91% 30.00 in 10.0 mi South 6.9 mph - N/A   Scattered Clouds
10:55 PM 62.6 °F 60.3 °F 92% 29.98 in 10.0 mi South 4.6 mph - N/A   Mostly Cloudy
11:55 PM 62.4 °F 60.8 °F 94% 29.97 in 10.0 mi South 5.8 mph - N/A   Partly Cloudy